Weather History for Sedalia, MO

Change the Weather History Date:

Sunday, December 30, 2012

  Actual Average Record
Temperature  
Mean Temperature 36 °F 32 °F  
Max Temperature 46 °F 40 °F 71 °F (1965)
Min Temperature 25 °F 23 °F -10 °F (1983)
Degree Days  
Heating Degree Days 29 33  
Month to date heating degree days 755 903  
Since 1 July heating degree days 1632 1748  
Cooling Degree Days 0 0  
Month to date cooling degree days 0 0  
Year to date cooling degree days 2111 1490  
Moisture  
Dew Point 18 °F    
Average Humidity 51    
Maximum Humidity 68    
Minimum Humidity 33    
Precipitation  
Precipitation 0.00 in 0.09 in 1.65 in (1984)
Month to date precipitation 0.50 2.24  
Year to date precipitation 29.92 41.03  
Sea Level Pressure  
Sea Level Pressure 30.31 in    
Wind  
Wind Speed 13 mph (SSW)    
Max Wind Speed 22 mph    
Max Gust Speed 29 mph    
Visibility 10 miles    
Events      
T = Trace of Precipitation, MM = Missing Value Source: NWS Daily Summary

Daily Weather History Graph

Daily Weather History Graph

Search for Another Location

Airport:

Trip Planner

Search our weather history database for the weather conditions in past years. The results will help you decide how hot, cold, wet, or windy it might be!

Date:

Astronomy

Dec. 30, 2012 Rise Set
Actual Time 7:30 AM CST 5:00 PM CST
Civil Twilight 7:00 AM CST 5:30 PM CST
Nautical Twilight 6:27 AM CST 6:03 PM CST
Astronomical Twilight 5:55 AM CST 6:36 PM CST
Moon 7:30 PM CST (12/30) 8:41 AM CST (12/30)
Length of Visible Light 10h 29m
Length of Day
9h 30m
Waning Gibbous, 95% of the Moon is Illuminated
Dec 30
Waning Gibbous
Jan 4
Last Quarter
Jan 11
New
Jan 18
First Quarter
Jan 26
Full

Hourly Weather History & Observations

Time (CST) Temp. Windchill Dew Point Humidity Pressure Visibility Wind Dir Wind Speed Gust Speed Precip Events Conditions
12:53 AM 28.0 °F 18.1 °F 17.1 °F 63% 30.36 in 10.0 mi SW 11.5 mph - N/A   Clear
1:53 AM 28.0 °F 17.5 °F 18.0 °F 66% 30.38 in 10.0 mi SW 12.7 mph - N/A   Clear
2:53 AM 27.0 °F 17.3 °F 16.0 °F 63% 30.38 in 10.0 mi SW 10.4 mph - N/A   Clear
3:53 AM 26.1 °F 16.2 °F 16.0 °F 66% 30.39 in 10.0 mi SW 10.4 mph - N/A   Clear
4:53 AM 26.1 °F 15.6 °F 17.1 °F 69% 30.38 in 10.0 mi SSW 11.5 mph - N/A   Clear
5:53 AM 26.1 °F 16.2 °F 17.1 °F 69% 30.38 in 10.0 mi SSW 10.4 mph - N/A   Clear
6:53 AM 27.0 °F 16.1 °F 17.1 °F 66% 30.39 in 10.0 mi SSW 12.7 mph - N/A   Clear
7:53 AM 28.0 °F 18.1 °F 18.0 °F 66% 30.39 in 10.0 mi SSW 11.5 mph - N/A   Clear
8:53 AM 30.9 °F 21.7 °F 19.0 °F 61% 30.39 in 10.0 mi SSW 11.5 mph - N/A   Clear
9:53 AM 35.1 °F 27.4 °F 21.0 °F 57% 30.40 in 10.0 mi SSW 10.4 mph - N/A   Clear
10:53 AM 37.9 °F 30.0 °F 21.9 °F 53% 30.40 in 10.0 mi SW 12.7 mph - N/A   Clear
11:53 AM 39.9 °F 33.4 °F 23.0 °F 51% 30.35 in 10.0 mi SSW 10.4 mph - N/A   Clear
12:53 PM 41.0 °F 33.1 °F 21.9 °F 47% 30.31 in 10.0 mi SSW 15.0 mph - N/A   Clear
1:53 PM 45.0 °F 37.4 °F 19.0 °F 36% 30.27 in 10.0 mi SW 18.4 mph 28.8 mph N/A   Clear
2:53 PM 45.0 °F 37.9 °F 18.0 °F 34% 30.27 in 10.0 mi SSW 16.1 mph 24.2 mph N/A   Clear
3:53 PM 44.1 °F 37.7 °F 17.1 °F 34% 30.25 in 10.0 mi SSW 12.7 mph - N/A   Clear
4:53 PM 42.1 °F 35.7 °F 17.1 °F 37% 30.24 in 10.0 mi South 11.5 mph - N/A   Clear
5:53 PM 41.0 °F 34.3 °F 17.1 °F 38% 30.24 in 10.0 mi SSW 11.5 mph - N/A   Clear
6:53 PM 39.9 °F 31.4 °F 17.1 °F 40% 30.21 in 10.0 mi South 16.1 mph - N/A   Clear
7:53 PM 41.0 °F 32.2 °F 16.0 °F 36% 30.21 in 10.0 mi South 18.4 mph 27.6 mph N/A   Clear
8:53 PM 39.9 °F 31.4 °F 16.0 °F 38% 30.19 in 10.0 mi SSW 16.1 mph 25.3 mph N/A   Clear
9:53 PM 39.9 °F 32.1 °F 17.1 °F 40% 30.19 in 10.0 mi SSW 13.8 mph 25.3 mph N/A   Clear
10:53 PM 39.0 °F 31.8 °F 17.1 °F 41% 30.18 in 10.0 mi SSW 11.5 mph - N/A   Clear
11:53 PM 39.0 °F 30.6 °F 17.1 °F 41% 30.20 in 10.0 mi SSW 15.0 mph 21.9 mph N/A   Clear